MOLNIYA 3-10

Last updated on Nov. 19, 2019, 4:25 a.m. UTC

1 11057U 78095A   19321.52347234  .00001627  00000-0  22555-3 0  9997
2 11057  62.6794  41.0536 5979902 294.0251  15.9638  4.09078632345107
UTC
Height (km)
Latitude
Longitude
Inclination
Orbital Period
UTC large
Height (km)
Speed (km/s)
/
Latitude / Longitude
Inclination (degrees)
Orbital Period (minutes)
Azimuth
Elevation
Range (km)
Doppler Factor
iOS Compass Heading
iOS Angle

Next 30 passes for location: Hong Kong

Rise time Rise Azimuth (degrees) Set time Set Azimuth (degrees) Duration Max altitude (degrees)

No matching passes for this satellites